Location: Songkhla
(7.2000°N, 100.6000°E)
Time: 05:55:17
(UTC+07:00)

XW-2D - Pass Details

Date: 04 August 2021
Orbit: 505 x 522 km, 97.5° (Epoch: 17 September)

Event Time Altitude Azimuth Distance (km) Brightness Sun altitude
Rises 05:09:19 0° 39° (NE) 2,635 ? -15.4°
Reaches altitude 10° 05:12:04 10° 61° (ENE) 1,751 ? -14.7°
Maximum altitude 05:14:26 16° 100° (E) 1,417 ? -14.2°
Drops below altitude 10° 05:16:48 10° 139° (SE) 1,755 ? -13.6°
Sets 05:19:33 0° 161° (SSE) 2,645 ? -13.0°
